Weather in Campia Turzii

Romania     46°32′49″N   23°53′11″E
temp.,
°C
wind,
m/s
gust,
m/s
humid.,
%
clouds,
%
prec.,
mm/h
press.,
hPa
HPBL,
m
27 february, sat
sat2723:00+9nne01690 0.0 102422
02:00+7n11750 0.0 102322
05:00+6wnw01790 0.0 102222
08:00+6wnw11780 0.0 102222
11:00+11nw7117098 0.0 1022724
14:00+7nnw10147399 0.0 1024582
17:00+7nw9136267 0.0 10241018
20:00+5nw8147234 0.0 1027750
28 february, sun
sun2823:00+3nw815710 0.0 1029605
02:00+2nw613720 0.0 1030501
05:00+1wnw411760 0.0 1030428
08:00+1wnw38780 0.0 1031348
11:00+5nw57570 0.0 10311071
14:00+7nnw68516 0.0 10301211
17:00+6nnw69530 0.0 1029968
20:00+3nnw511740 0.0 1031485
1 march, mon
mon123:00+2wnw23730 0.0 103084
02:00+2sw237029 0.0 103083
05:00+1wnw2792100 0.8 1029390
08:00+2nnw4987100 1.6 1030665
11:00+5nnw457369 0.0 1031688
14:00+8nnw335240 0.0 10311215
17:00+7nnw345666 0.0 10311126
20:00+4nw227333 0.0 103322
2 march, tue
tue223:00+3w11780 0.0 103422
02:00+2w01820 0.0 103522
05:00+1w01860 0.0 103422
08:00+2nw00820 0.0 103422
11:00+6ene00620 0.0 1034478
14:00+9wnw12470 0.0 1033874
17:00+10nnw24470 0.0 1032954
20:00+5nnw22720 0.0 103322
3 march, wed
wed323:00+4nnw12820 0.0 103423
02:00+3wsw01860 0.0 103422
05:00+2sw11870 0.0 103322
08:00+2s11850 0.0 103322
11:00+7s11620 0.0 1032430
14:00+11wnw01480 0.0 1030740
17:00+11w01460 0.0 1029718
20:00+7se11600 0.0 103022